User: anonymous   Login
Location: Unspecified
(0.0000°N, 0.0000°E)
Time: 13:11:30
(UTC+02:00)
Language:

Meteor 1-31 Rocket - Orbit

View from above orbital plane
View from above orbital plane
View from above satellite
View from above satellite

Ground track
Ground track

The orbit data is extracted from the following two-line orbital elements,

1 12586U 81065B   16211.49139612  .00000427  00000-0  30434-4 0  9999
2 12586  97.4606 194.8804 0018066 225.7438 134.2309 15.09533813907817
Epoch (UTC): 29 July 2016 11:47:36
Eccentricity: 0.0018066
inclination: 97.4606°
perigee height: 525 km
apogee height: 550 km
right ascension of ascending node: 194.8804°
argument of perigee: 225.7438°
revolutions per day: 15.09533813
mean anomaly at epoch: 134.2309°
orbit number at epoch: 90781

The dashed part of the orbit path shows where the satellite is in the earth's shadow,  

DLR